星链-4145 (STARLINK-4145 )

导读

STARLINK-4145是美国SpaceX公司星链星座中的一颗低轨卫星,于2022年7月17日发射升空,属于星链项目扩容卫星。星链星座旨在为全球提供高速低延迟宽带互联网服务,支持视频会议、在线游戏、流媒体等日常网络应用。STARLINK-4145依托星链的激光互联技术,可实现星间高速数据传输,助力为偏远地区、地面网络覆盖盲区提供稳定互联网接入服务。

基本信息
目录编号:
53137
目录名称:
STARLINK-4145
国际标识:
2022-083F
轨道中心:
EARTH
卫星名称:
星链-4145
卫星全名:
星链-4145 (STARLINK-4145 )
卫星状态:
在轨 (已飞行1431 天)
发射日期:
2022-07-17 UTC
国别 :
美国 (US)
星等 :
--
轨道信息
数据来源 国际轨道数据 AOE轨道数据
星历时间 2026-06-17T10:20:09+0800
9小时前
查看轨道信息
2026-06-17T00:00:00+0800
19小时前
查看轨道信息
半长轴 6917.878km 6917.863km
偏心率 0.000111 0.0001377
轨道倾角 53.161° 53.161°
近地点辐角 93.261° 86.011°
升交点赤经 87.768° 89.704°
平近点角 266.851° 93.520°
近地点 538.973km 538.773km
远地点 540.509km 540.679km
周期 95.437分钟 95.437分钟
每日圈数 15.088411 15.088458
详细信息
固有亮度:
5
最大亮度:
2.5
卫星平台:
Starlink v1.5
覆盖范围:
全球
运营商:
太空探索技术公司
运营商所在国:
美国
制造商(研发单位):
太空探索技术公司
制造商所在国:
美国
使用方式:
暂无
卫星简介
星链(Starlink)计划是由太空探索技术公司(SpaceX)提出的一个巨型低轨卫星互联网星座项目,计划在2019年至2024年间在太空搭建由约1.2万颗卫星组成的“星链”网络,其中1584颗将部署在地球上空550千米处的近地轨道,并从2020年开始工作。该卫星仍在工作。
2D轨道图
3D轨道图
轨道高度分析图
轨道倾角分析图
轨道综合分析图
查看轨道综合分析图